Regional Weather Roundup
Issued by NWS

Home | Current Version | Previous Version | Text Only | Print | Product List | Glossary On
Versions: 1 2 3 4 5 6 7 8 9 10 11 12 13 14 15 16 17 18 19 20 21 22 23 24 25 26 27 28 29 30 31 32 33 34 35 36 37 38 39 40 41 42 43 44 45 46 47 48 49 50
306
ASUS43 KTOP 271608
RWRKS

WEATHER ROUNDUP FOR KANSAS
NATIONAL WEATHER SERVICE GOODLAND KS
1100 AM CDT SAT MAY 27 2017

NOTE:  "FAIR" INDICATES FEW OR NO CLOUDS BELOW 12,000 FEET WITH NO
SIGNIFICANT WEATHER AND/OR OBSTRUCTIONS TO VISIBILITY.

KSZ001>006-013>018-027>032-041>047-271700-
NORTHWEST KANSAS

CITY           SKY/WX    TMP DP  RH WIND       PRES   REMARKS
GOODLAND       CLOUDY    57  53  86 NW17      30.00R
HAYS           PTSUNNY   68  59  73 NW10      29.89R
HILL CITY      MOSUNNY   70  59  68 NW10      29.91R
RUSSELL        PTSUNNY   68  58  70 N7        29.85R
$$

KSZ061>065-074>080-084>089-271700-
SOUTHWEST KANSAS

CITY           SKY/WX    TMP DP  RH WIND       PRES   REMARKS
DODGE CITY     CLOUDY    70  54  56 NE9       29.89R
ELKHART          N/A     64  48  56 N9          N/A
GARDEN CITY    CLOUDY    68  52  56 N13       29.93R
GREAT BEND     PTSUNNY   72  55  55 E10       29.86R
LIBERAL        CLOUDY    68  57  68 NE14      29.92R
PRATT          CLOUDY    69  51  52 E22       29.83F
$$

KSZ066>073-081>083-090>101-271700-
SOUTHEAST KANSAS

CITY           SKY/WX    TMP DP  RH WIND       PRES   REMARKS
CHANUTE        CLOUDY    75  69  81 N12       29.83R
COFFEYVILLE    PTSUNNY   81  78  91 S13       29.79S
HUTCHINSON     MOSUNNY   74  56  53 NE13      29.83F
MEDICINE LODGE   N/A     72  55  55 NE22G30   29.78F
NEWTON         SUNNY     72  56  57 NE18G25   29.84
PARSONS        PTSUNNY   82  73  74 VRB3      29.80F
WICHITA INTL   PTSUNNY   76  57  51 NE23G32   29.82F
WICHITA JABRA  PTSUNNY   75  56  51 NE20G26   29.83F
WICHITA MCCONL CLOUDY    75  55  50 NE22G28   29.82F
WINFIELD       CLOUDY    75  67  76 NE15G28   29.82R
$$

KSZ007>012-019>026-033>040-048>060-102>105-271700-
NORTHEAST KANSAS

CITY           SKY/WX    TMP DP  RH WIND       PRES   REMARKS
CONCORDIA      CLOUDY    63  60  90 NE14G24   29.83R
EMPORIA        CLOUDY    69  61  75 N8        29.91R
LAWRENCE       PTSUNNY   68  63  84 NW8       29.92R
MANHATTAN      CLOUDY    62  60  93 E9        29.80F
MARYSVILLE     CLOUDY    59  57  94 N15G24    29.84F
OLATHE IND     MOSUNNY   75  61  61 NE8       29.89S
OLATHE EXE     MOSUNNY   73  62  68 NE8       29.88S
SALINA         SUNNY     69  61  75 E10G21    29.82F
TOPEKA BILLARD TSTM      63  62  97 NE5       29.93R
TOPEKA FORBES  CLOUDY    66  62  87 N7        29.93R
$$




USA.gov is the U.S. government's official web portal to all federal, state and local government web resources and services.